DLH400 EDDF-KJFK

Flight info

Callsign DLH400
Flight time N/A
Altitude 38000
Route OBOKA3W OBOKA Z29 TORNU DCT VICOT DCT GALSO Q63 ERING L179 UGBET Q60 OKSAW DCT BIBPE DCT TIGWE DCT FELCA DCT FADZU DCT NICXI DCT OFSOX DCT SLANY DCT DIMUS DCT MALOT/M082F390 DCT 54N020W 54N030W 54N040W 53N050W DCT RIKAL/N0479F400 N572A TOPPS DCT ENE PARCH4
Aircraft A346/H-SDE2E3FGHIJ3J4J5M1P2RWXYZ/LB1D1

Departure

Time N/A
Airport Frankfurt Main Airport (EDDF)

Arrival

Time 2026-05-04 07:02
Airport John F. Kennedy International Airport (KJFK)
Time Latitude Longitude Altitude Speed Heading
2026-05-04 06:44 40.72649 -73.25289 20019 ft 317 kts 344°
2026-05-04 06:45 40.74889 -73.25405 19516 ft 329 kts 358°
2026-05-04 06:45 40.77161 -73.24778 19043 ft 340 kts 13°
2026-05-04 06:45 40.79313 -73.23374 18548 ft 351 kts 27°
2026-05-04 06:45 40.81325 -73.21514 18038 ft 354 kts 30°
2026-05-04 06:46 40.83313 -73.19571 17486 ft 356 kts 31°
2026-05-04 06:46 40.85303 -73.17617 16946 ft 357 kts 31°
2026-05-04 06:46 40.87306 -73.15666 16416 ft 358 kts 31°
2026-05-04 06:46 40.89312 -73.13714 15888 ft 359 kts 32°
2026-05-04 06:48 40.88680 -72.94120 12399 ft 355 kts 165°
2026-05-04 06:48 40.86236 -72.93705 12125 ft 349 kts 192°
2026-05-04 06:49 40.84038 -72.94703 11827 ft 325 kts 218°
2026-05-04 06:50 40.76055 -73.09708 10212 ft 272 kts 241°
2026-05-04 06:51 40.75010 -73.11796 9991 ft 272 kts 241°
2026-05-04 06:51 40.73965 -73.13876 9765 ft 272 kts 241°
2026-05-04 06:51 40.72937 -73.15925 9512 ft 271 kts 240°
2026-05-04 06:51 40.71890 -73.18001 9272 ft 270 kts 240°
2026-05-04 06:52 40.70850 -73.20060 9020 ft 269 kts 240°
2026-05-04 06:52 40.69813 -73.22113 8787 ft 268 kts 240°
2026-05-04 06:52 40.68781 -73.24156 8549 ft 267 kts 240°
2026-05-04 06:52 40.67753 -73.26188 8301 ft 266 kts 240°
2026-05-04 06:53 40.66728 -73.28232 7890 ft 271 kts 237°
2026-05-04 06:53 40.65667 -73.30343 7954 ft 277 kts 237°
2026-05-04 06:53 40.64601 -73.32423 7691 ft 271 kts 238°
2026-05-04 06:53 40.63562 -73.34459 7423 ft 265 kts 238°
2026-05-04 06:54 40.62545 -73.36458 7171 ft 260 kts 238°
2026-05-04 06:54 40.61546 -73.38421 6903 ft 255 kts 238°
2026-05-04 06:54 40.60570 -73.40338 6585 ft 247 kts 238°
2026-05-04 06:54 40.59627 -73.42190 6206 ft 240 kts 239°
2026-05-04 06:55 40.58711 -73.43986 5795 ft 232 kts 239°
2026-05-04 06:55 40.57822 -73.45730 5391 ft 226 kts 239°
2026-05-04 06:55 40.56956 -73.47431 4993 ft 221 kts 239°
2026-05-04 06:55 40.56107 -73.49096 4627 ft 216 kts 240°
2026-05-04 06:56 40.55285 -73.50697 4407 ft 205 kts 242°
2026-05-04 06:57 40.55219 -73.60541 3066 ft 155 kts 306°
2026-05-04 06:58 40.55795 -73.61731 2895 ft 153 kts 307°
2026-05-04 06:58 40.56358 -73.62920 2730 ft 153 kts 306°
2026-05-04 06:58 40.56897 -73.64112 2558 ft 148 kts 305°
2026-05-04 06:58 40.57393 -73.65243 2332 ft 139 kts 306°
2026-05-04 06:59 40.57888 -73.66343 2187 ft 139 kts 307°
2026-05-04 06:59 40.58394 -73.67434 2035 ft 139 kts 307°
2026-05-04 06:59 40.58893 -73.68525 1868 ft 139 kts 307°
2026-05-04 06:59 40.59385 -73.69618 1697 ft 138 kts 307°
2026-05-04 07:01 40.62724 -73.77035 279 ft 134 kts 306°
2026-05-04 07:01 40.63208 -73.78090 83 ft 134 kts 306°
2026-05-04 07:02 40.63639 -73.79028 33 ft 89 kts 301°
2026-05-04 07:02 40.63845 -73.79483 28 ft 43 kts 301°
2026-05-04 07:02 40.63989 -73.79798 31 ft 35 kts 301°
2026-05-04 07:02 40.64082 -73.80000 33 ft 25 kts 301°
2026-05-04 07:03 40.64193 -73.80152 33 ft 17 kts 330°
2026-05-04 07:03 40.64258 -73.80200 30 ft 6 kts 332°
2026-05-04 07:03 40.64313 -73.80194 28 ft 9 kts 44°
2026-05-04 07:03 40.64312 -73.80124 29 ft 10 kts 121°
2026-05-04 07:04 40.64271 -73.80037 30 ft 13 kts 122°
2026-05-04 07:04 40.64205 -73.79932 32 ft 17 kts 138°
2026-05-04 07:04 40.64119 -73.79808 34 ft 17 kts 123°
2026-05-04 07:04 40.64069 -73.79697 33 ft 11 kts 120°
2026-05-04 07:05 40.64021 -73.79588 31 ft 17 kts 121°
2026-05-04 07:05 40.63953 -73.79442 31 ft 19 kts 121°
2026-05-04 07:05 40.63923 -73.79373 30 ft 8 kts 112°
2026-05-04 07:05 40.63948 -73.79296 29 ft 12 kts 44°
2026-05-04 07:06 40.64032 -73.79189 33 ft 3 kts 45°
2026-05-04 07:06 40.64058 -73.79165 33 ft 6 kts 14°
2026-05-04 07:06 40.64080 -73.79179 33 ft 5 kts 320°
2026-05-04 07:07 40.64109 -73.79205 33 ft 4 kts 326°
2026-05-04 07:08 40.64117 -73.79212 33 ft 0 kts 326°